Bismarck, ND

3:56 PM CST on November 20, 2017 (GMT -0600)
Bismarck Municipal

Weather History for KBIS - October, 2013

Change the Weather History Date:

Sunday, October 13, 2013

  Actual Average Record
Temperature  
Mean Temperature 40 °F 46 °F  
Max Temperature 54 °F 59 °F 89 °F (1958)
Min Temperature 26 °F 33 °F 8 °F (1909)
Degree Days  
Heating Degree Days 25 19  
Month to date heating degree days 208 210  
Since 1 July heating degree days 339 496  
Cooling Degree Days 0 0  
Month to date cooling degree days 0 0  
Year to date cooling degree days 555 519  
Moisture  
Dew Point 35 °F    
Average Humidity 75    
Maximum Humidity 100    
Minimum Humidity 50    
Precipitation  
Precipitation 0.04 in 0.04 in 0.97 in (1940)
Month to date precipitation 3.17 0.55  
Year to date precipitation 23.84 15.95  
Snow  
Snow 0.00 in - 0.40 in (1997)
Month to date snowfall 0.6  
Since 1 July snowfall 0.6  
Since 1 September snowfall 0.6  
Snow Depth 0.00 in    
Sea Level Pressure  
Sea Level Pressure 30.34 in    
Wind  
Wind Speed 6 mph (East)    
Max Wind Speed 24 mph    
Max Gust Speed 30 mph    
Visibility 10 miles    
Events Rain    
T = Trace of Precipitation, MM = Missing Value Source: NWS Daily Summary

Daily Weather History Graph

Daily Weather History Graph

Search for Another Location

Airport or City:

Trip Planner

Search our weather history database for the weather conditions in past years. The results will help you decide how hot, cold, wet, or windy it might be!

Date:

Astronomy

Oct. 13, 2013 Rise Set
Actual Time 7:58 AM CDT 6:59 PM CDT
Civil Twilight 7:27 AM CDT 7:29 PM CDT
Nautical Twilight 6:52 AM CDT 8:04 PM CDT
Astronomical Twilight 6:17 AM CDT 8:39 PM CDT
Moon 4:09 PM CDT (10/13) 1:50 AM CDT (10/13)
Length of Visible Light 12h 01m
Length of Day
11h 00m
Waxing Gibbous, 69% of the Moon is Illuminated
Oct 13
Waxing Gibbous
Oct 18
Full
Oct 26
Last Quarter
Nov 3
New
Nov 9
First Quarter

Hourly Weather History & Observations

Time (CDT) Temp. Windchill Dew Point Humidity Pressure Visibility Wind Dir Wind Speed Gust Speed Precip Events Conditions
12:52 AM 37.9 °F 35.5 °F 32.0 °F 79% 30.28 in 10.0 mi West 3.5 mph - N/A   Clear
1:52 AM 36.0 °F - 33.1 °F 89% 30.30 in 10.0 mi Calm Calm - N/A   Clear
2:52 AM 32.0 °F - 28.9 °F 88% 30.31 in 10.0 mi Calm Calm - N/A   Clear
3:52 AM 30.9 °F - 28.0 °F 89% 30.32 in 10.0 mi Calm Calm - N/A   Clear
4:52 AM 32.0 °F - 30.0 °F 92% 30.33 in 10.0 mi Calm Calm - N/A   Clear
5:52 AM 30.0 °F 26.5 °F 28.0 °F 92% 30.35 in 10.0 mi ENE 3.5 mph - N/A   Clear
6:52 AM 28.0 °F - 27.0 °F 96% 30.37 in 10.0 mi Calm Calm - N/A   Clear
7:52 AM 28.0 °F 24.2 °F 27.0 °F 96% 30.38 in 10.0 mi ENE 3.5 mph - N/A   Clear
8:52 AM 28.9 °F 25.2 °F 28.0 °F 96% 30.39 in 10.0 mi ENE 3.5 mph - N/A   Clear
9:52 AM 34.0 °F 31.0 °F 32.0 °F 92% 30.40 in 10.0 mi ENE 3.5 mph - N/A   Clear
10:52 AM 37.9 °F 35.5 °F 35.1 °F 89% 30.40 in 10.0 mi Variable 3.5 mph - N/A   Clear
11:52 AM 44.1 °F 41.5 °F 39.0 °F 82% 30.40 in 10.0 mi ESE 4.6 mph - N/A   Clear
12:52 PM 51.1 °F - 34.0 °F 52% 30.38 in 10.0 mi SE 3.5 mph - N/A   Clear
1:52 PM 53.1 °F - 36.0 °F 52% 30.36 in 10.0 mi SSE 9.2 mph - N/A   Scattered Clouds
2:52 PM 52.0 °F - 37.0 °F 57% 30.34 in 10.0 mi ESE 8.1 mph - N/A   Overcast
3:52 PM 52.0 °F - 35.1 °F 53% 30.32 in 10.0 mi ESE 13.8 mph - N/A   Mostly Cloudy
4:52 PM 46.9 °F - 39.9 °F 77% 30.32 in 10.0 mi East 10.4 mph - 0.00 in Rain Light Rain
5:52 PM 46.0 °F 42.5 °F 41.0 °F 83% 30.32 in 10.0 mi East 6.9 mph - 0.01 in   Overcast
6:52 PM 46.0 °F 42.5 °F 41.0 °F 83% 30.33 in 10.0 mi East 6.9 mph - 0.00 in Rain Light Rain
7:52 PM 45.0 °F 39.7 °F 41.0 °F 86% 30.32 in 10.0 mi East 10.4 mph - 0.01 in   Overcast
8:52 PM 45.0 °F 39.7 °F 41.0 °F 86% 30.33 in 10.0 mi East 10.4 mph - 0.00 in Rain Light Rain
9:52 PM 44.1 °F 38.6 °F 39.9 °F 85% 30.32 in 10.0 mi ENE 10.4 mph - 0.01 in Rain Light Rain
10:52 PM 44.1 °F 37.7 °F 39.9 °F 85% 30.30 in 10.0 mi ENE 12.7 mph - 0.01 in   Overcast
11:52 PM 45.0 °F 38.2 °F 39.9 °F 82% 30.28 in 10.0 mi ENE 15.0 mph - N/A   Overcast